Date String (YYYY-MM-DD hh:mm:ss) UTC,Instrument flags,Ambient pressure (hPa),Sample flow (lpm),Bypass flow (lpm),Sample temperature (°C),Ambient temperature (°C),ASC tube jacket temperature (°C),LED temperature (°C),Box temperature (°C),Sample RH (%),Span deviation,Mass concentration (μg/m³),Mass concentration (μg/m³),Mass concentration (μg/m³)
DateTimeUTC,F1_M11,P_M11,Q1_M11,Q2_M11,T1_M11,T2_M11,T3_M11,T4_M11,T5_M11,U1_M11,ZSPAN_M11,X0_M11,X2_M11,X1_M11
2022-12-22 14:00:00,,0828.0,5.02,0.00,21.6,21.8,00.0,30.2,23.2,02.1,0001.9,0007.89,0004.32,0003.65
2022-12-22 14:01:00,,0828.0,4.97,0.00,21.7,21.9,00.0,30.2,23.3,02.1,0001.6,0007.93,0004.33,0003.66
2022-12-22 14:02:00,,0828.0,5.04,0.00,21.7,22.1,00.0,30.2,23.4,02.1,0001.6,0007.91,0004.31,0003.64
2022-12-22 14:03:00,,0828.0,4.97,0.00,21.8,22.2,00.0,30.3,23.5,02.1,0001.6,0007.89,0004.30,0003.64
2022-12-22 14:04:00,,0828.1,5.04,0.00,21.8,21.8,00.0,30.3,23.4,02.1,0001.9,0007.85,0004.28,0003.63
2022-12-22 14:05:00,,0828.1,4.95,0.00,21.7,20.4,00.0,30.4,22.9,02.1,0001.8,0007.91,0004.29,0003.63
2022-12-22 14:06:00,,0828.1,5.01,0.00,21.4,19.2,00.0,30.4,22.5,02.1,0001.9,0007.91,0004.28,0003.62
2022-12-22 14:07:00,,0828.1,5.03,0.00,21.2,18.6,00.0,30.3,22.1,02.2,0001.6,0008.00,0004.31,0003.64
2022-12-22 14:08:00,,0828.1,5.03,0.00,21.2,19.5,00.0,30.2,22.4,02.2,0001.6,0008.01,0004.32,0003.65
2022-12-22 14:09:00,,0828.2,4.96,0.00,21.3,20.4,00.0,30.1,22.7,02.2,0002.0,0008.01,0004.33,0003.66
2022-12-22 14:10:00,,0828.2,5.03,0.00,21.4,20.9,00.0,30.1,22.8,02.2,0002.2,0007.99,0004.32,0003.66
2022-12-22 14:11:00,,0828.3,4.97,0.00,21.4,21.4,00.0,30.1,23.0,02.1,0001.8,0008.08,0004.36,0003.67
2022-12-22 14:12:00,,0828.3,5.05,0.00,21.5,21.7,00.0,30.1,23.1,02.1,0002.3,0008.04,0004.35,0003.69
2022-12-22 14:13:00,,0828.2,4.97,0.00,21.6,21.9,00.0,30.1,23.3,02.1,0002.7,0008.02,0004.36,0003.72
2022-12-22 14:14:00,,0828.2,5.03,0.00,21.7,22.0,00.0,30.2,23.3,02.1,0003.0,0008.00,0004.37,0003.74
2022-12-22 14:15:00,,0828.2,4.97,0.00,21.7,21.9,00.0,30.2,23.3,02.1,0002.6,0008.04,0004.40,0003.78
2022-12-22 14:16:00,,0828.2,5.01,0.00,21.6,20.5,00.0,30.3,22.9,02.1,0002.4,0008.04,0004.43,0003.81
2022-12-22 14:17:00,,0828.4,4.96,0.00,21.3,19.1,00.0,30.3,22.4,02.2,0002.2,0008.10,0004.44,0003.83
2022-12-22 14:18:00,,0828.3,5.03,0.00,21.2,19.0,00.0,30.2,22.2,02.2,0002.2,0008.36,0004.44,0003.84
2022-12-22 14:19:00,,0828.3,5.01,0.00,21.2,19.9,00.0,30.1,22.5,02.2,0002.4,0008.42,0004.48,0003.86
2022-12-22 14:20:00,,0828.3,4.96,0.00,21.3,20.6,00.0,30.1,22.7,02.2,0002.6,0008.46,0004.49,0003.88
2022-12-22 14:21:00,,0828.3,5.03,0.00,21.4,21.1,00.0,30.1,22.9,02.2,0002.3,0008.40,0004.48,0003.89
2022-12-22 14:22:00,,0828.3,4.96,0.00,21.4,21.5,00.0,30.1,23.0,02.2,0002.7,0008.33,0004.45,0003.89
2022-12-22 14:23:00,,0828.3,5.04,0.00,21.5,21.7,00.0,30.1,23.1,02.2,0002.7,0008.30,0004.43,0003.88
2022-12-22 14:24:00,,0828.2,4.97,0.00,21.6,21.9,00.0,30.1,23.2,02.2,0002.6,0008.30,0004.43,0003.88
2022-12-22 14:25:00,,0828.2,5.03,0.00,21.6,21.9,00.0,30.1,23.3,02.2,0002.4,0008.26,0004.42,0003.87
2022-12-22 14:26:00,,0828.3,4.94,0.00,21.5,20.6,00.0,30.2,22.8,02.2,0002.8,0008.26,0004.42,0003.87
2022-12-22 14:27:00,,0828.4,5.04,0.00,21.3,19.1,00.0,30.2,22.2,02.2,0002.9,0008.30,0004.42,0003.87
2022-12-22 14:28:00,,0828.4,5.01,0.00,21.0,18.6,00.0,30.2,21.9,02.2,0002.9,0008.37,0004.43,0003.87
2022-12-22 14:29:00,,0828.5,4.99,0.00,21.1,19.6,00.0,30.1,22.2,02.2,0002.6,0008.13,0004.46,0003.87
2022-12-22 14:30:00,,0828.5,4.98,0.00,21.2,20.4,00.0,30.0,22.5,02.2,0002.6,0008.11,0004.43,0003.85
2022-12-22 14:31:00,,0828.4,5.03,0.00,21.2,20.9,00.0,30.0,22.7,02.2,0002.6,0008.21,0004.44,0003.86
2022-12-22 14:32:00,,0828.5,4.97,0.00,21.3,21.2,00.0,30.0,22.8,02.2,0002.5,0008.27,0004.46,0003.86
2022-12-22 14:33:00,,0828.5,5.03,0.00,21.4,21.4,00.0,30.0,23.0,02.2,0002.3,0008.84,0004.48,0003.88
2022-12-22 14:34:00,,0828.4,4.98,0.00,21.4,21.6,00.0,30.0,23.1,02.2,0002.1,0009.03,0004.53,0003.88
2022-12-22 14:35:00,,0828.4,4.99,0.00,21.5,21.7,00.0,30.0,23.2,02.2,0002.2,0009.08,0004.55,0003.89
2022-12-22 14:36:00,,0828.4,5.02,0.00,21.6,21.8,00.0,30.0,23.2,02.2,0002.3,0009.13,0004.57,0003.90
2022-12-22 14:37:00,,0828.4,4.96,0.00,21.6,22.0,00.0,30.1,23.3,02.2,0002.1,0009.17,0004.59,0003.89
2022-12-22 14:38:00,,0828.4,5.04,0.00,21.7,22.0,00.0,30.1,23.4,02.2,0002.0,0009.06,0004.57,0003.88
2022-12-22 14:39:00,,0828.4,4.96,0.00,21.8,22.0,00.0,30.1,23.4,02.2,0001.7,0008.98,0004.57,0003.88
2022-12-22 14:40:00,,0828.4,5.04,0.00,21.8,22.0,00.0,30.2,23.5,02.1,0002.1,0009.14,0004.57,0003.90
2022-12-22 14:41:00,,0828.4,4.99,0.00,21.9,22.0,00.0,30.2,23.5,02.1,0001.7,0009.23,0004.59,0003.91
2022-12-22 14:42:00,,0828.4,4.99,0.00,21.9,22.0,00.0,30.2,23.5,02.1,0001.3,0009.00,0004.54,0003.90
2022-12-22 14:43:00,,0828.5,5.05,0.00,22.0,22.0,00.0,30.3,23.6,02.1,0001.2,0009.01,0004.55,0003.90
2022-12-22 14:44:00,,0828.5,4.95,0.00,22.0,22.0,00.0,30.3,23.6,02.1,0000.4,0008.67,0004.55,0003.90
2022-12-22 14:45:00,,0828.4,5.04,0.00,22.1,22.0,00.0,30.4,23.6,02.1,0000.1,0008.94,0004.52,0003.92
2022-12-22 14:46:00,,0828.6,4.98,0.00,22.1,22.1,00.0,30.4,23.7,02.1,0000.9,0008.94,0004.54,0003.94
2022-12-22 14:47:00,,0828.5,5.01,0.00,22.1,22.1,00.0,30.4,23.7,02.1,0000.6,0008.99,0004.56,0003.95
2022-12-22 14:48:00,,0829.1,5.02,0.00,22.2,22.1,00.0,30.5,23.8,02.1,0000.6,0008.97,0004.55,0003.95
2022-12-22 14:49:00,,0828.9,4.96,0.00,22.2,22.1,00.0,30.5,23.8,02.1,0001.6,0009.16,0004.60,0003.95
2022-12-22 14:50:00,,0828.8,5.03,0.00,22.2,22.1,00.0,30.5,23.8,02.1,0002.0,0009.08,0004.57,0003.94
2022-12-22 14:51:00,,0828.7,4.98,0.00,22.3,22.1,00.0,30.6,23.8,02.1,0002.6,0008.87,0004.55,0003.93
2022-12-22 14:52:00,,0828.7,5.01,0.00,22.3,22.1,00.0,30.6,23.9,02.1,0003.1,0008.65,0004.52,0003.91
2022-12-22 14:53:00,,0828.7,5.02,0.00,22.3,22.2,00.0,30.6,23.9,02.1,0003.8,0008.70,0004.54,0003.91
2022-12-22 14:54:00,,0828.7,4.97,0.00,22.3,22.2,00.0,30.7,23.9,02.1,0003.9,0008.74,0004.55,0003.90
2022-12-22 14:55:00,,0828.7,5.03,0.00,22.4,22.3,00.0,30.7,24.0,02.1,0004.0,0008.82,0004.55,0003.90
2022-12-22 14:56:00,,0828.8,4.96,0.00,22.4,22.4,00.0,30.7,24.0,02.1,0003.9,0008.39,0004.59,0003.90
2022-12-22 14:57:00,,0829.2,5.04,0.00,22.5,22.4,00.0,30.8,24.0,02.1,0004.0,0008.43,0004.59,0003.89
2022-12-22 14:58:00,,0828.8,4.95,0.00,22.4,21.8,00.0,30.8,23.8,02.1,0003.7,0008.40,0004.57,0003.89
2022-12-22 14:59:00,,0829.0,5.01,0.00,22.1,20.3,00.0,30.9,23.2,02.2,0003.6,0008.56,0004.62,0003.91
